This is the latest recevied weather packets stored in our database for station/object KI4NG. If no packets are shown the sender has not sent any weather packets the latest 10 day(s).
| Time | Temp. | Humidity | Pressure | Rain* | Wind** | Luminosity | Snow |
|---|---|---|---|---|---|---|---|
| 1787844978 | 26.67° C | 79% | 1018.2 hPa | 0 mm | - | 710 W/m² | - |
| 1787844673 | 26.11° C | 77% | 1018.2 hPa | 0 mm | - | 706 W/m² | - |
| 1787844367 | 26.67° C | 79% | 1018.7 hPa | 0 mm | - | 725 W/m² | - |
| 1787844066 | 26.11° C | 79% | 1018.5 hPa | 0 mm | - | 680 W/m² | - |
| 1787843761 | 26.11° C | 81% | 1018.6 hPa | 0 mm | - | 596 W/m² | - |
| 1787843456 | 26.11° C | 81% | 1018.3 hPa | 0 mm | - | 662 W/m² | - |
| 1787843154 | 25.56° C | 82% | 1018.2 hPa | 0 mm | - | 665 W/m² | - |
| 1787842848 | 25.56° C | 82% | 1018.6 hPa | 0 mm | - | 593 W/m² | - |
| 1787842543 | 25.56° C | 85% | 1018.7 hPa | 0 mm | - | 620 W/m² | - |
| 1787842242 | 25° C | 85% | 1018.7 hPa | 0 mm | - | 498 W/m² | - |
| 1787841937 | 25° C | 86% | 1018.6 hPa | 0 mm | - | 582 W/m² | - |
| 1787841633 | 25.56° C | 85% | 1018.7 hPa | 0 mm | - | 684 W/m² | - |
| 1787841332 | 25° C | 86% | 1018.5 hPa | 0 mm | - | 664 W/m² | - |
| 1787841027 | 24.44° C | 87% | 1018.3 hPa | 0 mm | - | 692 W/m² | - |
| 1787840723 | 24.44° C | 89% | 1018.5 hPa | 0 mm | - | 616 W/m² | - |
| 1787840418 | 23.89° C | 88% | 1018.6 hPa | 0 mm | - | 461 W/m² | - |
| 1787840113 | 23.33° C | 91% | 1018.3 hPa | 0 mm | - | 345 W/m² | - |
| 1787839813 | 22.78° C | 93% | 1018.2 hPa | 0 mm | - | 247 W/m² | - |
| 1787839508 | 22.78° C | 93% | 1018.5 hPa | 0 mm | - | 182 W/m² | - |
| 1787839206 | 23.33° C | 92% | 1018.3 hPa | 0 mm | - | 192 W/m² | - |
| 1787838906 | 22.78° C | 93% | 1018.3 hPa | 0 mm | - | 504 W/m² | - |
| 1787838600 | 22.22° C | 94% | 1018.6 hPa | 0 mm | - | 204 W/m² | - |
| 1787838299 | 22.78° C | 93% | 1018.2 hPa | 0 mm | - | 200 W/m² | - |
| 1787837998 | 22.78° C | 92% | 1018.6 hPa | 0 mm | - | 187 W/m² | - |
| 1787837692 | 23.33° C | 91% | 1018.2 hPa | 0 mm | - | 154 W/m² | - |
* Rain latest hour (hover to see other rain measurements)
** Current wind speed in m/s (hover to see current wind gust speed)